Tracking 26933 objects as of 5-Feb-2023
HD Live streaming from Space Station
objects crossing your sky now

STARLINK-3085

Track STARLINK-3085 now!
10-day predictions
STARLINK-3085 is classified as:


NORAD ID: 49156
Int'l Code: 2021-082AC
Perigee: 577.2 km
Apogee: 581.2 km
Inclination: 70.0 °
Period: 96.1 minutes
Semi major axis: 6950 km
RCS: Unknown
Launch date: September 14, 2021
Source: United States (US)
Launch site: AIR FORCE WESTERN TEST RANGE (AFWTR)
Your satellite tracking list
Your tracking list is empty




NASA's NSSDC Master Catalog

Two Line Element Set (TLE):
1 49156U 21082AC  23035.89909409  .00000336  00000-0  35985-4 0  9995
2 49156  69.9998 220.5307 0002879 270.1108  89.9721 14.98332317 78968
Source of the keplerian elements: AFSPC